Location: *
(49.6619°S, 177.4603°W)
Time: 05:13:19
(UTC+00:00)

Timation 2 Rocket - Pass Details

Date: 31 January 2023
Orbit: 905 x 1076 km, 70.0° (Epoch: 01 April)

Event Time Altitude Azimuth Distance (km) Brightness Sun altitude
Rises 08:32:41 0° 348° (NNW) 3,840 6.8 -8.4°
Reaches altitude 10° 08:35:19 10° 351° (N) 2,904 6.2 -8.8°
Maximum altitude 08:42:01 57° 67° (ENE) 1,262 4.3 -9.6°
Drops below altitude 10° 08:48:48 10° 144° (SE) 2,936 6.6 -10.4°
Sets 08:51:28 0° 147° (SSE) 3,885 7.3 -10.7°
